Orbital Elements at Epoch 2459000.5 (2020-May-31.0) TDB
Reference: JPL 32 (heliocentric ecliptic J2000)
Element | Value | Uncertainty (1-sigma) | Units |
e | .1189679494638795 | 3.0131e-08 | |
a | 2.395699898165041 | 9.0126e-09 | au |
q | 2.110688393749522 | 7.1648e-08 | au |
i | 6.64227413665965 | 3.9463e-06 | deg |
node | 135.4206555230278 | 2.7126e-05 | deg |
peri | 144.4348520399219 | 3.1718e-05 | deg |
M | 226.7692151822204 | 1.6538e-05 | deg |
tp | 2459501.743938651586 (2021-Oct-14.24393865) | 6.317e-05 | TDB |
period | 1354.400322428261 3.71 | 7.6429e-06 2.093e-08 | d yr |
n | .265800291124095 | 1.4999e-09 | deg/d |
Q | 2.680711402580561 | 1.0085e-08 | au |
|
| | Orbit Determination Parameters
Additional Information
|